When you browse on this site, cookies collect data to enhance your experience and personalize the content and advertising you see.
Visit our Privacy Policy to learn more. By continuing to use the site, you agree to this use of cookies and data.
  • In Romania
  • List of Countries
  • For 7 days
  • Water Temperature
  • Satellite Maps
  • Weather Map
  • Weather Widgets
  • user-avatar
    Login

    Hourly Weather Concord

    Today, 21 May, Tuesday

    Time Temperature Precipitation Wind Pressure Humidity
    00:00 +13°C° 0 mm 4 mps 746 mmHg 70%
    01:00 +12°C° 0 mm 4 mps 746 mmHg 68%
    02:00 +12°C° 0 mm 4 mps 746 mmHg 70%
    03:00 +11°C° 0 mm 4 mps 746 mmHg 72%
    04:00 +11°C° 0 mm 4 mps 746 mmHg 73%
    05:00 +10°C° 0 mm 5 mps 746 mmHg 69%
    06:00 +12°C° 0 mm 5 mps 746 mmHg 65%
    07:00 +13°C° 0 mm 6 mps 747 mmHg 61%
    08:00 +14°C° 0 mm 6 mps 747 mmHg 55%
    09:00 +15°C° 0 mm 7 mps 747 mmHg 49%
    10:00 +16°C° 0 mm 7 mps 747 mmHg 44%
    11:00 +16°C° 0 mm 7 mps 747 mmHg 43%
    12:00 +16°C° 0 mm 7 mps 747 mmHg 42%
    13:00 +16°C° 0 mm 8 mps 747 mmHg 41%
    14:00 +16°C° 0 mm 8 mps 747 mmHg 44%
    15:00 +15°C° 0 mm 7 mps 748 mmHg 46%
    16:00 +14°C° 0 mm 7 mps 748 mmHg 49%
    17:00 +13°C° 0 mm 6 mps 749 mmHg 52%
    18:00 +13°C° 0 mm 5 mps 749 mmHg 54%
    19:00 +12°C° 0 mm 4 mps 750 mmHg 57%
    20:00 +11°C° 0 mm 4 mps 750 mmHg 59%
    21:00 +11°C° 0 mm 4 mps 750 mmHg 60%
    22:00 +10°C° 0 mm 3 mps 751 mmHg 62%
    23:00 +10°C° 0 mm 3 mps 751 mmHg 64%

    Tomorrow, 22 May, Wednesday

    Time Temperature Precipitation Wind Pressure Humidity
    00:00 +9°C° 0 mm 3 mps 752 mmHg 66%
    01:00 +7°C° 0 mm 4 mps 752 mmHg 68%
    02:00 +7°C° 0 mm 4 mps 753 mmHg 67%
    03:00 +7°C° 0 mm 4 mps 753 mmHg 67%
    04:00 +7°C° 0 mm 4 mps 754 mmHg 66%
    05:00 +8°C° 0 mm 5 mps 755 mmHg 63%
    06:00 +9°C° 0 mm 5 mps 755 mmHg 59%
    07:00 +10°C° 0 mm 5 mps 756 mmHg 55%
    08:00 +13°C° 0 mm 5 mps 756 mmHg 50%
    09:00 +15°C° 0 mm 6 mps 756 mmHg 44%
    10:00 +16°C° 0 mm 6 mps 756 mmHg 39%
    11:00 +19°C° 0 mm 5 mps 756 mmHg 37%
    12:00 +20°C° 0 mm 5 mps 757 mmHg 35%
    13:00 +21°C° 0 mm 4 mps 757 mmHg 33%
    14:00 +21°C° 0 mm 4 mps 757 mmHg 33%
    15:00 +21°C° 0 mm 3 mps 757 mmHg 34%
    16:00 +21°C° 0 mm 3 mps 757 mmHg 35%
    17:00 +19°C° 0 mm 2 mps 758 mmHg 44%
    18:00 +17°C° 0 mm 2 mps 758 mmHg 54%
    19:00 +15°C° 0 mm 1 mps 759 mmHg 63%
    20:00 +13°C° 0 mm 1 mps 759 mmHg 67%
    21:00 +12°C° 0 mm 1 mps 759 mmHg 72%
    22:00 +10°C° 0 mm 1 mps 760 mmHg 76%
    23:00 +9°C° 0 mm 1 mps 760 mmHg 77%

    Day after tomorrow, 23 May, Thursday

    Time Temperature Precipitation Wind Pressure Humidity
    00:00 +8°C° 0 mm 0 mps 760 mmHg 78%
    01:00 +7°C° 0 mm 0 mps 760 mmHg 79%
    02:00 +7°C° 0 mm 0 mps 760 mmHg 81%
    03:00 +7°C° 0 mm 0 mps 760 mmHg 82%
    04:00 +6°C° 0 mm 0 mps 759 mmHg 84%
    05:00 +10°C° 0 mm 1 mps 759 mmHg 76%
    06:00 +12°C° 0 mm 1 mps 759 mmHg 68%
    07:00 +14°C° 0 mm 1 mps 759 mmHg 60%
    08:00 +15°C° 0 mm 2 mps 759 mmHg 59%
    09:00 +16°C° 0 mm 2 mps 759 mmHg 57%
    10:00 +16°C° 0 mm 3 mps 758 mmHg 56%
    11:00 +17°C° 0 mm 3 mps 757 mmHg 55%
    12:00 +18°C° 0 mm 3 mps 757 mmHg 54%
    13:00 +19°C° 0 mm 4 mps 756 mmHg 53%
    14:00 +19°C° 0 mm 3 mps 755 mmHg 60%
    15:00 +18°C° 0 mm 3 mps 755 mmHg 66%
    16:00 +18°C° 0 mm 3 mps 754 mmHg 72%
    17:00 +17°C° 2.8 mm 3 mps 753 mmHg 81%
    18:00 +14°C° 2.8 mm 3 mps 753 mmHg 89%
    19:00 +13°C° 2.8 mm 3 mps 752 mmHg 97%
    20:00 +13°C° 3.2 mm 3 mps 752 mmHg 97%
    21:00 +12°C° 3.2 mm 3 mps 751 mmHg 98%
    22:00 +12°C° 3.2 mm 3 mps 750 mmHg 98%
    23:00 +13°C° 1.4 mm 2 mps 749 mmHg 98%

    24 May, Friday

    Time Temperature Precipitation Wind Pressure Humidity
    00:00 +13°C° 1.4 mm 2 mps 748 mmHg 98%
    01:00 +13°C° 1.4 mm 1 mps 747 mmHg 99%
    02:00 +13°C° 0.4 mm 2 mps 747 mmHg 99%
    03:00 +13°C° 0.4 mm 2 mps 746 mmHg 98%
    04:00 +12°C° 0.4 mm 3 mps 746 mmHg 98%
    05:00 +11°C° 0.2 mm 3 mps 747 mmHg 98%
    06:00 +11°C° 0.2 mm 4 mps 748 mmHg 97%
    07:00 +10°C° 0.2 mm 4 mps 749 mmHg 97%
    08:00 +10°C° 0.1 mm 4 mps 750 mmHg 96%
    09:00 +10°C° 0.1 mm 4 mps 751 mmHg 96%
    10:00 +10°C° 0.1 mm 4 mps 752 mmHg 96%
    11:00 +11°C° 0.1 mm 4 mps 753 mmHg 92%
    12:00 +11°C° 0.1 mm 4 mps 754 mmHg 89%
    13:00 +11°C° 0.1 mm 4 mps 755 mmHg 85%
    14:00 +12°C° 0 mm 3 mps 755 mmHg 78%
    15:00 +13°C° 0 mm 3 mps 755 mmHg 72%
    16:00 +15°C° 0 mm 2 mps 756 mmHg 65%
    17:00 +14°C° 0 mm 2 mps 756 mmHg 71%
    18:00 +12°C° 0 mm 2 mps 757 mmHg 77%
    19:00 +11°C° 0 mm 1 mps 757 mmHg 83%
    20:00 +10°C° 0 mm 1 mps 757 mmHg 87%
    21:00 +8°C° 0 mm 1 mps 758 mmHg 91%
    22:00 +6°C° 0 mm 0 mps 758 mmHg 95%
    23:00 +5°C° 0 mm 0 mps 758 mmHg 95%

    25 May, Saturday

    Time Temperature Precipitation Wind Pressure Humidity
    00:00 +5°C° 0 mm 0 mps 758 mmHg 95%
    01:00 +5°C° 0 mm 0 mps 758 mmHg 95%
    02:00 +4°C° 0 mm 0 mps 758 mmHg 94%
    03:00 +4°C° 0 mm 0 mps 758 mmHg 94%
    04:00 +4°C° 0 mm 0 mps 758 mmHg 93%
    05:00 +6°C° 0 mm 0 mps 758 mmHg 83%
    06:00 +10°C° 0 mm 1 mps 758 mmHg 72%
    07:00 +12°C° 0 mm 1 mps 758 mmHg 62%
    08:00 +14°C° 0 mm 2 mps 757 mmHg 58%
    09:00 +15°C° 0 mm 2 mps 757 mmHg 54%
    10:00 +17°C° 0 mm 3 mps 756 mmHg 49%
    11:00 +18°C° 0 mm 3 mps 756 mmHg 47%
    12:00 +20°C° 0 mm 4 mps 755 mmHg 45%
    13:00 +21°C° 0 mm 4 mps 755 mmHg 43%
    14:00 +21°C° 0 mm 4 mps 754 mmHg 45%
    15:00 +20°C° 0 mm 4 mps 753 mmHg 48%
    16:00 +20°C° 0 mm 4 mps 753 mmHg 51%
    17:00 +18°C° 0 mm 3 mps 753 mmHg 56%
    18:00 +17°C° 0 mm 3 mps 753 mmHg 62%
    19:00 +15°C° 0 mm 2 mps 753 mmHg 68%
    20:00 +14°C° 0.7 mm 2 mps 752 mmHg 77%
    21:00 +13°C° 0.7 mm 2 mps 752 mmHg 86%
    22:00 +10°C° 0.7 mm 2 mps 752 mmHg 95%
    23:00 +10°C° 0 mm 2 mps 752 mmHg 95%

    26 May, Sunday

    Time Temperature Precipitation Wind Pressure Humidity
    00:00 +10°C° 0 mm 2 mps 751 mmHg 96%
    01:00 +9°C° 0 mm 2 mps 751 mmHg 97%
    02:00 +9°C° 0 mm 2 mps 750 mmHg 97%
    03:00 +11°C° 0 mm 1 mps 750 mmHg 97%
    04:00 +11°C° 0 mm 1 mps 750 mmHg 98%
    05:00 +13°C° 0 mm 2 mps 750 mmHg 96%
    06:00 +15°C° 0 mm 2 mps 750 mmHg 94%
    07:00 +17°C° 0 mm 2 mps 750 mmHg 92%
    08:00 +20°C° 0 mm 3 mps 750 mmHg 79%
    09:00 +24°C° 0 mm 3 mps 750 mmHg 67%
    10:00 +27°C° 0 mm 3 mps 750 mmHg 55%
    11:00 +27°C° 0 mm 3 mps 750 mmHg 53%
    12:00 +27°C° 0 mm 3 mps 750 mmHg 51%
    13:00 +27°C° 0 mm 3 mps 749 mmHg 49%
    14:00 +27°C° 0 mm 3 mps 749 mmHg 54%
    15:00 +26°C° 0 mm 2 mps 749 mmHg 58%
    16:00 +26°C° 0 mm 1 mps 749 mmHg 62%
    17:00 +24°C° 0 mm 1 mps 750 mmHg 68%
    18:00 +23°C° 0 mm 1 mps 750 mmHg 73%
    19:00 +22°C° 0 mm 1 mps 751 mmHg 78%
    20:00 +20°C° 0 mm 1 mps 751 mmHg 81%
    21:00 +19°C° 0 mm 1 mps 751 mmHg 84%
    22:00 +17°C° 0 mm 2 mps 751 mmHg 86%
    23:00 +16°C° 0 mm 1 mps 752 mmHg 88%
    Show more